Starlink 31516

operational
NORAD ID: 59221 Int'l Des: 2024-046 Owner: SPXS Country: US Constellation: starlink
LEOCIRCULAR

About Starlink 31516

Description loading...

Live Position

Loading 3D Globe...

Upcoming Passes

Altitude History

Altitude vs Time

uPlot chart will show altitude changes over time

Two-Line Element Set

1 59221U 24046W 25304.56525421 -.00007240 00000-0 -23282-3 0 9994
2 59221 53.1629 34.8450 0001726 65.7341 294.3840 15.30160222 93276
Epoch: Oct 31, 2025 • Age: 9 hours

Current Status

Altitude 490.6 km
Velocity 7.62 km/s
Sub-Earth Point -42.31°S, 121.17°W
Launch Date Mar 11, 2024
Age 1.6 years
Type internet

Technical Details

Classification Payload
Mass 730.00 kg
Dry Mass 700.00 kg
Total Mass 730.00 kg
Length 0.30 m
Diameter 4.10 m
Span 29.00 m
Shape Box + pan
Manufacturer SPXS
Bus Type Starlink V2M
Phase Status In Orbit
Owner/State SPXS/US

Large Constellations

Loading constellations...